Location: Beddau
(51.5575°N, 3.3561°W)
Time: 18:05:23
(UTC+00:00)

Cosmos 1295 Rocket - Pass Details

Date: 03 March 2021
Orbit: 943 x 994 km, 82.9° (Epoch: 13 April)

Event Time Altitude Azimuth Distance (km) Brightness Sun altitude
Rises 19:20:53 0° 187° (S) 3,675 7.5 -13.7°
Reaches altitude 10° 19:23:23 10° 187° (S) 2,724 6.8 -14.1°
Maximum altitude 19:29:39 89° 105° (ESE) 978 4.5 -15.1°
Drops below altitude 10° 19:35:52 10° 10° (N) 2,707 6.8 -16.0°
Sets 19:38:22 0° 11° (N) 3,650 7.5 -16.4°
